This is the latest recevied weather packets stored in our database for station/object K9APR. If no packets are shown the sender has not sent any weather packets the latest 10 day(s).
| Time | Temp. | Humidity | Pressure | Rain* | Wind** | Luminosity | Snow |
|---|---|---|---|---|---|---|---|
| 1777984881 | 13.89° C | 87% | 1007.4 hPa | 0 mm | - | - | - |
| 1777984341 | 13.33° C | 87% | 1007.2 hPa | 0 mm | - | - | - |
| 1777983802 | 13.33° C | 87% | 1007.2 hPa | 0 mm | - | - | - |
| 1777983262 | 13.33° C | 88% | 1007 hPa | 0 mm | - | - | - |
| 1777982721 | 12.78° C | 89% | 1007.1 hPa | 0 mm | - | - | - |
| 1777982180 | 12.78° C | 89% | 1007.2 hPa | 0 mm | - | - | - |
| 1777981641 | 12.78° C | 89% | 1007.2 hPa | 0 mm | - | - | - |
| 1777981101 | 12.78° C | 89% | 1007.3 hPa | 0 mm | - | - | - |
| 1777980560 | 12.78° C | 88% | 1007.2 hPa | 0 mm | - | - | - |
| 1777980026 | 12.78° C | 88% | 1007.1 hPa | 0 mm | - | - | - |
| 1777979484 | 12.78° C | 88% | 1007 hPa | 0 mm | - | - | - |
| 1777978943 | 12.78° C | 88% | 1006.6 hPa | 0 mm | - | - | - |
| 1777978400 | 12.78° C | 88% | 1007 hPa | 0.25 mm | - | - | - |
| 1777977863 | 12.78° C | 88% | 1006.6 hPa | 0.25 mm | - | - | - |
| 1777977323 | 12.78° C | 88% | 1006.3 hPa | 0.25 mm | - | - | - |
| 1777977108 | 12.78° C | 88% | 1005.6 hPa | 0.25 mm | - | - | - |
| 1777976780 | 12.78° C | 88% | 1005.6 hPa | 0.25 mm | - | - | - |
| 1777975738 | 12.78° C | 90% | 1005.4 hPa | 0.51 mm | - | - | - |
| 1777975701 | 12.78° C | 90% | 1005.4 hPa | 0.51 mm | - | - | - |
| 1777975164 | 12.78° C | 90% | 1005.7 hPa | 0.51 mm | - | - | - |
| 1777974621 | 12.78° C | 90% | 1005.2 hPa | 0.25 mm | - | - | - |
| 1777974082 | 12.78° C | 90% | 1006.1 hPa | 0.51 mm | - | - | - |
| 1777973543 | 12.78° C | 90% | 1006.4 hPa | 1.02 mm | - | - | - |
| 1777971381 | 12.78° C | 90% | 1007.9 hPa | 4.83 mm | - | - | - |
| 1777970842 | 12.78° C | 90% | 1008.1 hPa | 5.33 mm | - | - | - |
* Rain latest hour (hover to see other rain measurements)
** Current wind speed in m/s (hover to see current wind gust speed)